Location: Schommer Observatory
(40.5200°N, 74.4500°W)
Time: 04:35:49
(UTC-05:00)

ISS - Pass Details

Date: 18 November 2017
Orbit: 402 x 407 km, 51.6° (Epoch: 21 November)

Event Time Altitude Azimuth Distance (km) Brightness Sun altitude
Exits shadow 04:09:28 13° 105° (ESE) 1,277 -0.5 -30.0°
Drops below altitude 10° 04:09:54 10° 108° (ESE) 1,449 -0.2 -29.9°
Sets 04:12:01 0° 114° (ESE) 2,304 1.0 -29.5°
